[Iaude] MPEC J295: 2024 JS16 [a=1.40,e=0.22,i=8.7,H=26.0]
    mpec at cfa.harvard.edu 
    mpec at cfa.harvard.edu
       
    Mon May 13 07:00:06 EDT 2024
    
    
  
M.P.E.C. 2024-J295                                 Issued 2024 May 13, 10:58 UT
     The Minor Planet Electronic Circulars contain information on unusual
         minor planets, routine data on comets and natural satellites,
         and occasional editorial announcements.  They are published
    on behalf of Division F of the International Astronomical Union by the
          Minor Planet Center, Smithsonian Astrophysical Observatory,
                          Cambridge, MA 02138, U.S.A.
			  
             Prepared using the Tamkin Foundation Computer Network
                              MPC at CFA.HARVARD.EDU
            URL https://www.minorplanetcenter.net/    ISSN 1523-6714
                                   2024 JS16                                    
Observations:
     K24J16S* C2024 05 07.38575114 16 58.901-32 18 44.62         22.13wXEJ295F52
     K24J16S  C2024 05 07.39488314 17 00.499-32 18 10.73         21.88wXEJ295F52
     K24J16S  C2024 05 07.40401414 17 02.102-32 17 36.54         21.75wXEJ295F52
     K24J16S  C2024 05 08.40762214 20 44.208-31 12 50.96         21.46GVEJ295F51
     K24J16S  C2024 05 08.40844514 20 44.348-31 12 48.17         22.28GVEJ295F51
     K24J16S KC2024 05 09.24969114 23 57.440-30 15 31.61         21.49GVEJ295V06
     K24J16S KC2024 05 09.25314214 23 58.106-30 15 17.28               VEJ295V06
     K24J16S KC2024 05 09.26004714 23 59.446-30 14 48.88               VEJ295V06
     K24J16S KC2024 05 10.51408614 28 53.441-28 41 53.38         21.4 GVEJ295474
     K24J16S KC2024 05 10.51773114 28 54.245-28 41 37.61         20.9 GVEJ295474
     K24J16S KC2024 05 10.52137814 28 54.965-28 41 20.87         21.5 GVEJ295474
     K24J16S KC2024 05 12.29513 14 36 11.11 -26 23 05.1          22.0 RVEJ295691
     K24J16S KC2024 05 12.30477 14 36 13.05 -26 22 17.8          21.3 RVEJ295691
Observer details:
474 Mount John Observatory, Lake Tekapo.  Observers A. C. Gilmore, P. M.
    Kilmartin.  Measurer P. M. Kilmartin.  1.0-m f/7.7 Reflector + CCD.
691 Steward Observatory, Kitt Peak-Spacewatch.  Observer C. Lejoly.  0.9-m f/3
    reflector + CCD.
F51 Pan-STARRS 1, Haleakala.  Observers J. Herman, T. Lowe, P. Minguez, A.
    Schultz, I. Smith.  Measurers K. Chambers, T. de Boer, J. Fairlamb, H.
    Gao, M. Huber, C.-C. Lin, E. Magnier, Y. Ramanjooloo, R. Wainscoat, R.
    Weryk.  1.8-m Ritchey-Chretien + CCD.
F52 Pan-STARRS 2, Haleakala.  Observers J. Herman, T. Lowe, P. Minguez, A.
    Schultz, I. Smith.  Measurers K. Chambers, T. de Boer, J. Fairlamb, H.
    Gao, M. Huber, C.-C. Lin, E. Magnier, Y. Ramanjooloo, R. Wainscoat, R.
    Weryk.  1.8-m Ritchey-Chretien + CCD.
V06 Catalina Sky Survey-Kuiper.  Observer H. Groeller.  Measurers T. Beuden,
    V. F. Carvajal, D. Fay, J. B. Fazekas, D. C. Fuls, A. R. Gibbs, A. D.
    Grauer, H. Groeller, J. K. Hogan, R. A. Kowalski, S. M. Larson, G. J.
    Leonard, D. Rankin, R. L. Seaman, F. C. Shelly, K. W. Wierzchos.  1.55-m
    reflector + 1K CCD.
Orbital elements:
2024 JS16                                                Earth MOID = 0.0742 AU
Epoch 2024 Mar. 31.0 TT = JDT 2460400.5                 Veres                   
M 321.64594              (2000.0)            P               Q                  
n   0.59798902     Peri.   15.44112     -0.30981447     +0.94241961             
a   1.3953203      Node   236.66393     -0.88752621     -0.33416056             
e   0.2242419      Incl.    8.66982     -0.34104578     +0.01349092             
P   1.65           H   26.02          G   0.15           U   8                  
Residuals in seconds of arc
240507 F52  0.1+  0.2+    240509 V06  0.1-  0.3+    240510 474  0.1-  0.0
240507 F52  0.0   0.1+    240509 V06  0.1-  0.3+    240512 691  0.3+  0.5+
240507 F52  0.1-  0.1+    240509 V06  0.0   0.1-    240512 691  1.0-  0.4-
240508 F51  0.1+  0.2+    240510 474  0.3-  0.6+
240508 F51  0.1-  0.3-    240510 474  0.3+  0.2-
Ephemeris:
2024 JS16                a,e,i = 1.40, 0.22, 9                   q = 1.0824
Date    TT    R. A. (2000) Decl.     Delta      r    Elong.  Phase     V
2024 04 13    13 21 05.6 -43 17 04   0.1741  1.1508   145.7    29.4    23.8
...
2024 04 28    13 48 09.8 -39 26 37   0.1226  1.1179   153.6    23.6    22.8
...
2024 05 06    14 12 03.2 -33 40 22   0.1007  1.1043   160.6    17.7    22.2
...
2024 05 12    14 34 57.6 -26 45 57   0.08788 1.0961   167.2    11.8    21.7
2024 05 13    14 39 10.4 -25 22 26   0.08612 1.0949   168.2    10.8    21.6
2024 05 14    14 43 29.4 -23 54 48   0.08447 1.0937   169.2    10.0    21.5
...
2024 05 20    15 11 09.5 -13 52 18   0.07739 1.0880   169.3     9.9    21.3
...
2024 05 28    15 50 14.9 +01 08 37   0.07608 1.0834   156.3    22.1    21.7
...
2024 06 12    16 55 52.2 +21 53 41   0.09543 1.0845   134.5    41.9    22.7
M. P. C. Staff               (C) Copyright 2024 MPC           M.P.E.C. 2024-J295
    
    
More information about the Iaude
mailing list